Torna al catalogo

CZ-6A DEB

AttivoSSO
NORAD 55554·DEBRIS·🇨🇳 China

Lanciato Nov 11, 2022 da Taiyuan Satellite Launch Center

Loading…

Prossimi Passaggi (prossime 24 ore)

TLE

AggiornatoSource: Space-Track

Epoca: Sep 12, 2026, 23:28 UTC

1 55554U 22151ZC  26255.97805314  .00001625  00000-0  83027-3 0  9999
2 55554  98.8228 250.9931 0058448  75.4572 285.3075 14.16126936197287

Traccia CZ-6A DEB in tempo reale con AllMySat

Download on the App Store